LDSPLDDU

Guest
Details From LDSP - SPLIT
To LDDU - DUBROVNIK
Flight Number -
Tags generated
Created
Modified
Stats Distance 104 nm / 193 km
Max Altitude 8,100 ft / 2,469 m
Waypoints 3
Social Downloads 2
Likes 0
Share VATSIM

Download

Looking for another format? Having issues loading an existing format? Contact us
Advertisement - Login to hide

Notes

Basic altitude profile: - Ascent Rate: 2500ft/min - Ascent Speed: 250kts - Cruise Altitude: 35000ft - Cruise Speed: 420kts - Descent Rate: 1500ft/min - Descent Speed: 250kts Options: - Use NATs: yes - Use PACOTS: yes - Use low airways: yes - Use high airways: yes

Route

LDSP NERRA LDDU

ID Type Via Altitude Latitude Longitude Leg Dist Tot Dist Heading (true) Name
O LDSP APT - 0 ft / 0 m 43.53903˚ 16.29811˚ - 0 nm - SPLIT
NERRA FIX - 8,100 ft / 2,469 m 42.90528˚ 17.54333˚ 66 nm 66 nm 125° / 125° -
O LDDU APT - 0 ft / 0 m 42.56284˚ 18.26450˚ 37 nm 104 nm 123° / 123° DUBROVNIK

Altitude Profile

Advertisement - Login to hide

LDSP

Details ICAO LDSP (SPU)
Name SPLIT
Region Croatia
Timezone Europe/Zagreb (UTC+2.0)
Stats Elevation 79 ft / 24 m (AMSL)
Location 43.539026° 16.298112°
Runways 1
Magnetic Variation 3.884° E

METAR

LDSP 230300Z AUTO 35003KT 320V030 CAVOK 19/15 Q1013 RERA NOSIG

Decode

TAF

TAF LDSP 222325Z 2300/2400 11006KT 9999 SCT040 TX24/2311Z TN19/2301Z PROB30 TEMPO 2302/2312 VRB10KT -TSRA FEW040CB BKN045 TEMPO 2307/2311 10012KT PROB40 TEMPO 2312/2321 VRB12G22KT 4000 TSRA SCT030CB FEW033TCU BKN035

Decode

Departure Runways

ID Width Length Bearing (true) Bearing (mag) Surface Threshold Offset Overrun Length
05 148 ft / 45 m 8,357 ft / 2,547 m 52.48° 48.60° Asphalt 0 ft / 0 m 76 ft / 23 m
23 148 ft / 45 m 8,357 ft / 2,547 m 232.50° 228.62° Asphalt 525 ft / 160 m 820 ft / 250 m

LDDU

Details ICAO LDDU (DBV)
Name DUBROVNIK
Region Croatia
Timezone Europe/Zagreb (UTC+2.0)
Stats Elevation 527 ft / 161 m (AMSL)
Location 42.562840° 18.264499°
Runways 1
Magnetic Variation 4.146° E

METAR

LDDU 230300Z 07007KT CAVOK 20/12 Q1014 NOSIG

Decode

TAF

TAF LDDU 222325Z 2300/2400 08006KT 9999 SCT033 TX24/2310Z TN20/2302Z PROB40 TEMPO 2306/2317 -TSRA FEW020CB FEW030TCU BKN033 BECMG 2309/2311 12012KT BECMG 2317/2319 VRB02KT

Decode

Destination Runways

ID Width Length Bearing (true) Bearing (mag) Surface Threshold Offset Overrun Length
12 148 ft / 45 m 10,803 ft / 3,293 m 118.30° 114.15° Asphalt 488 ft / 149 m 100 ft / 30 m
30 148 ft / 45 m 10,803 ft / 3,293 m 298.33° 294.18° Asphalt 0 ft / 0 m 100 ft / 30 m

Approach Navaids

Runway Type Ident Frequency Range Bearing (true) Bearing (mag) Slope Elevation
12 Localiser IDU 110.10 MHz 25 nm / 46 km 118.21° 114.06° - 469 ft / 143 m (AMSL)
12 Glidescope IDU 110.10 MHz 25 nm / 46 km 118.21° 114.06° 3.00° 502 ft / 153 m (AMSL)

Popular Alternatives